Regional Weather Roundup
Issued by NWS

Home | Current Version | Previous Version | Text Only | Print | Product List | Glossary Off
Versions: 1 2 3 4 5 6 7 8 9 10 11 12 13 14 15 16 17 18 19 20 21 22 23 24 25 26 27 28 29 30 31 32 33 34 35 36 37 38 39 40 41 42 43 44 45 46 47 48 49 50

000
ASUS43 KDTX 060801
RWRMI
MICHIGAN HOURLY REGIONAL WEATHER ROUNDUP
NATIONAL WEATHER SERVICE DETROIT/PONTIAC MI
400 AM EDT FRI MAY 06 2016

NOTE: "FAIR" INDICATES FEW OR NO CLOUDS BELOW 12,000 FEET WITH NO
SIGNIFICANT WEATHER AND/OR OBSTRUCTION TO VISIBILITY.

MIZ047>049-052>055-059>063-066>070-074>076-081>083-060900-
SOUTHEAST LOWER MICHIGAN

CITY           SKY/WX    TMP DP  RH WIND       PRES   REMARKS
ADRIAN         CLEAR     49  42  77 N5        29.93S
ALMA           CLEAR     41  40  99 W9        29.94S
BAD AXE        CLEAR     37  36  99 CALM      29.92S FOG
CARO           FOG       38  37  97 CALM      29.92S VSB 3/4
DETROIT CITY   PTCLDY    49  33  54 N5        29.91S
DETROIT        PTCLDY    49  33  54 NW5       29.91S
FLINT          CLEAR     44  39  82 CALM      29.93S
GROSSE ILE     CLEAR     46  36  66 N5        29.90R
HILLSDALE      CLEAR     46  39  76 W3        29.93S
HOWELL         CLEAR     43  38  83 CALM      29.92S

CITY           SKY/WX    TMP DP  RH WIND       PRES   REMARKS
JACKSON        PTCLDY    44  41  89 SW3       29.92F
LAMBERTVILLE   PTCLDY    44  39  81 CALM      29.92S
LANSING        PTCLDY    44  41  89 W3        29.93F
LAPEER         FAIR      38  37  96 CALM      29.92S
MASON          PTCLDY    44  42  91 CALM      29.93S
MONROE         CLEAR     44  37  77 CALM      29.90S
MT. CLEMENS    CLEAR     46  37  71 N5        29.90S
PONTIAC        CLEAR     45  35  68 NW7       29.91R
PORT HOPE        N/A     42  39  89 W3        29.90
PORT HURON     CLEAR     39  37  93 CALM      29.91S
TRI CITIES     CLEAR     48  40  73 NW7       29.93S
MIDLAND        FAIR      38  38  99 CALM      29.92F
TROY           CLEAR     51  33  50 NW6       29.93R
SAGINAW HB     PTCLDY    43  41  93 CALM      29.92S
$$
MIZ043>046-050>051-056>058-064>065-071>073-077>080-060900-
SOUTHWEST LOWER MICHIGAN

CITY           SKY/WX    TMP DP  RH WIND       PRES   REMARKS
BATTLE CREEK   CLEAR     43  36  76 W7        29.95S
BENTON HARBOR  CLEAR     36  34  92 CALM      29.97S
BIG RAPIDS     CLEAR     37  34  86 CALM      29.94S
COLDWATER      CLEAR     43  39  85 CALM      29.94S
FREMONT        FAIR      38  37  96 CALM      29.95S
HOLLAND        CLEAR    N/A N/A N/A CALM      29.97S
GRAND RAPIDS   CLEAR     45  38  76 W7        29.95R
IONIA          FAIR      46  40  79 W5        29.93R
KALAMAZOO      CLEAR     43  34  70 CALM      29.95S
LUDINGTON      PTCLDY    36  36 100 CALM      29.95S
MARSHALL       CLEAR     43  39  86 CALM      29.93S
MOUNT PLEASANT CLEAR     42  41  97 CALM      29.93S FOG
MUSKEGON       PTCLDY    38  34  85 CALM      29.96S
$$
MIZ016>042-060900-
NORTHERN LOWER MICHIGAN

CITY           SKY/WX    TMP DP  RH WIND       PRES   REMARKS
ALPENA         PTCLDY    40  37  89 NW3       29.92S
BEAVER ISLAND  CLEAR     34  33  93 CALM      29.92S
BELLAIRE       PTCLDY    36  34  94 CALM      29.93F
CADILLAC       CLOUDY    34  33  96 CALM      29.93S
CHARLEVOIX     CLEAR     40  37  87 E3        29.95F
FRANKFORT      CLOUDY    43  37  80 CALM      29.93S
GAYLORD        MOCLDY    41  35  79 CALM      29.92F
GRAYLING       PTCLDY    37  35  94 CALM      29.94S
HARBOR SPRINGS CLEAR     38  34  87 CALM      29.92F
HOUGHTON LAKE  PTCLDY    38  37  97 CALM      29.93S FOG
MANISTEE       CLEAR     34  28  80 CALM      29.95S
OSCODA         CLEAR     37  34  89 CALM      29.91S
PELLSTON       PTCLDY    34  32  92 SE3       29.92F
ROGERS CITY    MOCLDY    44  37  78 W5        29.93S
TRAVERSE CITY  PTCLDY    38  34  85 CALM      29.92S
$$
MIZ007>008-015-060900-
EASTERN UPPER MICHIGAN

CITY           SKY/WX    TMP DP  RH WIND       PRES   REMARKS
KINROSS          N/A     43  37  81 SW6       29.90F
MACKINAC ISLAN MOCLDY    43  35  73 SW9       29.91F
NEWBERRY       MOCLDY    41  37  86 S9        29.89S
S. S. MARIE    CLOUDY    41  34  76 CALM      29.90F
MUNISING         N/A     49  35  58 S10       29.85F
$$
MIZ004>006-011>014-085-060900-
CENTRAL UPPER MICHIGAN

CITY           SKY/WX    TMP DP  RH WIND       PRES   REMARKS
MANISTIQUE     CLEAR     39  38  93 S6        29.89F
ESCANABA       PTCLDY    45  39  81 CALM      29.88S
MENOMINEE      CLOUDY    50  43  76 E5        29.89S
SAWYER-GWINN   CLEAR     44  36  73 S8        29.84F
$$
MIZ001>003-009>011-084-060900-
WESTERN UPPER MICHIGAN

CITY           SKY/WX    TMP DP  RH WIND       PRES   REMARKS
IRON MOUNTAIN  CLOUDY    50  40  68 CALM      29.85S
HOUGHTON       CLEAR     45  35  68 E3        29.77F
IRONWOOD         N/A     59  37  44 S7        29.78S
$$

ABBREVIATIONS USED IN REMARKS
   TC - TEMPERATURE IN CELSIUS
  WCI - WIND CHILL INDEX
   HX - HEAT INDEX
  VSB - VISIBILITY




USA.gov is the U.S. government's official web portal to all federal, state and local government web resources and services.